Time,TemperatureF,DewpointF,PressureIn,WindDirection,WindDirectionDegrees,WindSpeedMPH,WindSpeedGustMPH,Humidity,HourlyPrecipIn,Conditions,Clouds,dailyrainin,SoftwareType,DateUTC
2013-09-17 00:11:00,58.0,54.0,29.93,SE,124,3.0,7.0,85,0.00,,,0.00,,2013-09-17 07:11:00,
2013-09-17 00:23:00,58.0,53.0,29.93,ESE,112,4.0,6.0,83,0.00,,,0.00,,2013-09-17 07:23:00,
2013-09-17 00:52:00,58.0,53.0,29.93,ESE,117,2.0,7.0,82,0.00,,,0.00,,2013-09-17 07:52:00,
2013-09-17 01:12:00,58.0,52.0,29.92,ESE,119,1.0,6.0,81,0.00,,,0.00,,2013-09-17 08:12:00,
2013-09-17 01:21:00,58.0,52.0,29.93,ESE,118,0.0,3.0,81,0.00,,,0.00,,2013-09-17 08:21:00,
2013-09-17 01:52:00,58.0,52.0,29.92,ESE,114,1.0,5.0,80,0.00,,,0.00,,2013-09-17 08:52:00,
2013-09-17 02:11:00,58.0,52.0,29.92,ESE,113,1.0,4.0,80,0.00,,,0.00,,2013-09-17 09:11:00,
2013-09-17 02:22:00,58.0,52.0,29.91,ESE,102,3.0,6.0,79,0.00,,,0.00,,2013-09-17 09:22:00,
2013-09-17 02:42:00,58.0,52.0,29.91,ESE,105,2.0,6.0,79,0.00,,,0.00,,2013-09-17 09:42:00,
2013-09-17 02:53:00,58.0,52.0,29.91,East,96,1.0,5.0,80,0.00,,,0.00,,2013-09-17 09:53:00,
2013-09-17 03:12:00,58.0,52.0,29.90,ESE,109,1.0,7.0,79,0.00,,,0.00,,2013-09-17 10:12:00,
2013-09-17 03:23:00,58.0,52.0,29.90,ESE,105,3.0,5.0,79,0.00,,,0.00,,2013-09-17 10:23:00,
2013-09-17 03:42:00,58.0,52.0,29.90,ESE,113,2.0,10.0,79,0.00,,,0.00,,2013-09-17 10:42:00,
2013-09-17 03:53:00,58.0,52.0,29.90,ESE,108,1.0,6.0,80,0.00,,,0.00,,2013-09-17 10:53:00,
2013-09-17 04:11:00,58.0,52.0,29.89,ESE,104,1.0,5.0,80,0.00,,,0.00,,2013-09-17 11:11:00,
2013-09-17 04:22:00,58.0,52.0,29.89,East,100,1.0,5.0,79,0.00,,,0.00,,2013-09-17 11:22:00,
2013-09-17 04:52:00,57.0,52.0,29.88,East,100,1.0,6.0,82,0.00,,,0.00,,2013-09-17 11:52:00,
2013-09-17 05:12:00,57.0,52.0,29.88,East,96,2.0,4.0,83,0.00,,,0.00,,2013-09-17 12:12:00,
2013-09-17 05:21:00,57.0,52.0,29.88,East,96,2.0,4.0,83,0.00,,,0.00,,2013-09-17 12:21:00,
2013-09-17 05:52:00,57.0,53.0,29.88,ESE,106,3.0,6.0,85,0.00,,,0.00,,2013-09-17 12:52:00,
2013-09-17 06:11:00,57.0,53.0,29.88,ESE,106,0.0,3.0,85,0.00,,,0.00,,2013-09-17 13:11:00,
2013-09-17 06:22:00,57.0,53.0,29.88,ESE,106,0.0,5.0,86,0.00,,,0.00,,2013-09-17 13:22:00,
2013-09-17 06:52:00,57.0,53.0,29.88,ESE,106,3.0,5.0,87,0.00,,,0.00,,2013-09-17 13:52:00,
2013-09-17 07:11:00,57.0,53.0,29.88,ESE,107,2.0,4.0,86,0.00,,,0.00,,2013-09-17 14:11:00,
2013-09-17 07:21:00,57.0,53.0,29.88,ESE,106,0.0,3.0,86,0.00,,,0.00,,2013-09-17 14:21:00,
2013-09-17 07:52:00,57.0,53.0,29.88,ESE,109,1.0,6.0,85,0.00,,,0.00,,2013-09-17 14:52:00,
2013-09-17 08:11:00,57.0,52.0,29.88,ESE,110,3.0,6.0,84,0.00,,,0.00,,2013-09-17 15:11:00,
2013-09-17 08:22:00,57.0,52.0,29.88,ESE,110,2.0,5.0,84,0.00,,,0.00,,2013-09-17 15:22:00,
2013-09-17 08:44:00,58.0,53.0,29.88,ESE,110,3.0,5.0,83,0.00,,,0.00,,2013-09-17 15:44:00,
2013-09-17 08:53:00,58.0,53.0,29.88,ESE,113,3.0,7.0,83,0.00,,,0.00,,2013-09-17 15:53:00,
2013-09-17 09:12:00,58.0,53.0,29.88,ESE,113,1.0,4.0,82,0.00,,,0.00,,2013-09-17 16:12:00,
2013-09-17 09:23:00,58.0,53.0,29.88,ESE,113,0.0,3.0,82,0.00,,,0.00,,2013-09-17 16:23:00,
2013-09-17 09:54:00,59.0,53.0,29.88,ESE,113,0.0,4.0,80,0.00,,,0.00,,2013-09-17 16:54:00,
2013-09-17 10:12:00,59.0,53.0,29.87,ESE,113,0.0,2.0,80,0.00,,,0.00,,2013-09-17 17:12:00,
2013-09-17 10:23:00,59.0,52.0,29.88,ESE,113,1.0,4.0,79,0.00,,,0.00,,2013-09-17 17:23:00,
2013-09-17 10:42:00,60.0,53.0,29.88,ESE,113,0.0,2.0,78,0.00,,,0.00,,2013-09-17 17:42:00,
2013-09-17 10:53:00,60.0,53.0,29.88,ESE,113,0.0,3.0,78,0.00,,,0.00,,2013-09-17 17:53:00,
2013-09-17 11:12:00,60.0,53.0,29.88,ESE,113,0.0,3.0,77,0.00,,,0.00,,2013-09-17 18:12:00,
2013-09-17 11:21:00,60.0,52.0,29.88,ESE,113,2.0,3.0,76,0.00,,,0.00,,2013-09-17 18:21:00,
2013-09-17 11:42:00,60.0,52.0,29.88,ESE,113,0.0,1.0,75,0.00,,,0.00,,2013-09-17 18:42:00,
2013-09-17 11:52:00,61.0,53.0,29.88,ESE,113,0.0,2.0,75,0.00,,,0.00,,2013-09-17 18:52:00,
2013-09-17 12:11:00,61.0,53.0,29.88,ESE,113,0.0,2.0,74,0.00,,,0.00,,2013-09-17 19:11:00,
2013-09-17 12:21:00,61.0,52.0,29.88,East,101,0.0,5.0,73,0.00,,,0.00,,2013-09-17 19:21:00,
2013-09-17 12:52:00,62.0,53.0,29.88,East,96,0.0,3.0,73,0.00,,,0.00,,2013-09-17 19:52:00,
2013-09-17 13:11:00,62.0,53.0,29.88,East,87,0.0,5.0,72,0.00,,,0.00,,2013-09-17 20:11:00,
2013-09-17 13:22:00,62.0,52.0,29.88,NW,315,2.0,6.0,71,0.00,,,0.00,,2013-09-17 20:22:00,
2013-09-17 13:52:00,62.0,53.0,29.88,SSW,202,2.0,8.0,72,0.00,,,0.00,,2013-09-17 20:52:00,
2013-09-17 14:12:00,62.0,53.0,29.88,West,281,3.0,6.0,73,0.00,,,0.00,,2013-09-17 21:12:00,
2013-09-17 14:22:00,62.0,53.0,29.88,West,275,4.0,7.0,73,0.00,,,0.00,,2013-09-17 21:22:00,
2013-09-17 14:54:00,62.0,53.0,29.88,West,271,0.0,3.0,73,0.00,,,0.00,,2013-09-17 21:54:00,
2013-09-17 15:13:00,62.0,52.0,29.88,West,277,2.0,4.0,71,0.00,,,0.00,,2013-09-17 22:13:00,
2013-09-17 15:24:00,62.0,52.0,29.88,West,278,2.0,5.0,70,0.00,,,0.00,,2013-09-17 22:24:00,
2013-09-17 15:53:00,63.0,52.0,29.88,NW,306,3.0,5.0,68,0.00,,,0.00,,2013-09-17 22:53:00,
2013-09-17 16:21:00,62.0,52.0,29.88,NW,310,1.0,3.0,70,0.00,,,0.00,,2013-09-17 23:21:00,
2013-09-17 16:52:00,63.0,52.0,29.88,NW,310,0.0,2.0,67,0.00,,,0.00,,2013-09-17 23:52:00,
2013-09-17 17:11:00,62.0,51.0,29.87,NW,310,0.0,1.0,68,0.00,,,0.00,,2013-09-18 00:11:00,
2013-09-17 17:22:00,62.0,52.0,29.87,NW,311,1.0,4.0,69,0.00,,,0.00,,2013-09-18 00:22:00,
2013-09-17 17:42:00,62.0,52.0,29.88,NW,312,0.0,3.0,69,0.00,,,0.00,,2013-09-18 00:42:00,
2013-09-17 17:52:00,62.0,52.0,29.88,NNW,330,1.0,4.0,70,0.00,,,0.00,,2013-09-18 00:52:00,
2013-09-17 18:11:00,62.0,52.0,29.88,NNW,331,1.0,2.0,71,0.00,,,0.00,,2013-09-18 01:11:00,
2013-09-17 18:21:00,62.0,53.0,29.88,NNW,331,0.0,2.0,72,0.00,,,0.00,,2013-09-18 01:21:00,
2013-09-17 18:42:00,62.0,53.0,29.88,NNW,331,0.0,1.0,73,0.00,,,0.00,,2013-09-18 01:42:00,
2013-09-17 18:52:00,61.0,52.0,29.89,NNW,331,0.0,1.0,73,0.00,,,0.00,,2013-09-18 01:52:00,
2013-09-17 19:11:00,61.0,53.0,29.89,NNW,331,0.0,1.0,74,0.00,,,0.00,,2013-09-18 02:11:00,
2013-09-17 19:21:00,61.0,53.0,29.89,NNW,331,0.0,1.0,76,0.00,,,0.00,,2013-09-18 02:21:00,
2013-09-17 19:42:00,60.0,53.0,29.89,NNW,331,0.0,1.0,78,0.00,,,0.00,,2013-09-18 02:42:00,
2013-09-17 19:52:00,60.0,53.0,29.90,NNW,331,0.0,1.0,79,0.00,,,0.00,,2013-09-18 02:52:00,
2013-09-17 20:11:00,60.0,54.0,29.90,NNW,331,0.0,1.0,80,0.00,,,0.00,,2013-09-18 03:11:00,
2013-09-17 20:22:00,59.0,54.0,29.90,NNW,333,1.0,3.0,83,0.00,,,0.00,,2013-09-18 03:22:00,
2013-09-17 20:44:00,58.0,54.0,29.91,NNW,333,2.0,3.0,85,0.00,,,0.00,,2013-09-18 03:44:00,
2013-09-17 20:55:00,58.0,54.0,29.91,North,355,2.0,4.0,87,0.00,,,0.00,,2013-09-18 03:55:00,
2013-09-17 21:14:00,58.0,54.0,29.91,NE,52,3.0,4.0,87,0.00,,,0.00,,2013-09-18 04:14:00,
2013-09-17 21:24:00,58.0,54.0,29.92,East,81,2.0,4.0,86,0.00,,,0.00,,2013-09-18 04:24:00,
2013-09-17 21:54:00,57.0,53.0,29.92,East,84,0.0,0.0,86,0.00,,,0.00,,2013-09-18 04:54:00,
2013-09-17 22:12:00,57.0,53.0,29.92,East,84,1.0,2.0,86,0.00,,,0.00,,2013-09-18 05:12:00,
2013-09-17 22:23:00,57.0,53.0,29.92,East,84,0.0,0.0,86,0.00,,,0.00,,2013-09-18 05:23:00,
2013-09-17 22:42:00,57.0,53.0,29.93,East,84,0.0,2.0,86,0.00,,,0.00,,2013-09-18 05:42:00,
2013-09-17 22:53:00,57.0,53.0,29.93,East,84,0.0,1.0,86,0.00,,,0.00,,2013-09-18 05:53:00,
2013-09-17 23:12:00,57.0,53.0,29.93,East,84,1.0,3.0,87,0.00,,,0.00,,2013-09-18 06:12:00,
2013-09-17 23:22:00,57.0,53.0,29.93,East,84,1.0,4.0,86,0.00,,,0.00,,2013-09-18 06:22:00,
2013-09-17 23:42:00,57.0,53.0,29.93,East,84,0.0,1.0,85,0.00,,,0.00,,2013-09-18 06:42:00,
2013-09-17 23:52:00,57.0,53.0,29.93,East,84,1.0,2.0,86,0.00,,,0.00,,2013-09-18 06:52:00,